STARLINK-31884, 59676

Orbit data source: Space-Track

STARLINK-31884, 59676 is a payload satellite owned by SpaceX/Seattle (US) in LEO that was launched on Mon, 06 May 2024 UTC via an FALCON 9 launch vehicle from the Air Force Eastern Test Range (AFETR). Payload-class satellites include a variety of spacecraft equipped with specific instruments for various scientific and technological missions. These include communications satellites like Starlink; space stations such as the ISS; scientific satellites like the Hubble; Earth observation satellites from companies like Planet Labs, Umbra, and HawkEye 360; GPS; miniature CubeSats for education and research; and military/defense satellites.

Loading next visibility...
Identifier
59676, 2024-084Y
Orbit
LEO
Last TLE update
6 hours ago
Origin
Manufacturer
SpaceX/Seattle
Mission
Operational spacecraft
Bus & Motor
STARLINK V2M, Unknown motor
Mass
730 kg wet, ~700 kg dry
Launch date (UTC)
2024-05-06 (1 year ago)
Launch vehicle
FALCON 9
Launch site
Air Force Eastern Test Range (AFETR)
Object type
Payload
Rocket body
Debris
Shape & HBR
Unknown
Radar Cross Section
Large (>1 m²)

Expand to show TLE details & history

TLE from 6 hours ago
0 STARLINK-31884
1 59676U 24084Y   25186.52958420 -.00001837  00000-0 -57240-4 0  9991
2 59676  43.0045 357.6096 0001995 285.6563  74.4069 15.27571005 66573
Epoch: 2025-07-05T12:42Z
TLE epoch observation values (Epoch: 2025-07-05T12:42:36.074Z)
Latitude
-0°
Longitude
-116.80703°
Altitude
482.484 km
Speed
7.626 km/s
True Right ascension
23h 50m 26s
True Declination
0° 00' 00"
Sunlit
Object was in daylight at epoch
Visualization orbit readout
Latitude
-43.11257°
Longitude
155.19373°
Altitude
495.085 km
Speed
7.618 km/s
Apparent Right ascension
18h 14m 57s
Apparent Declination
-41° 27' 58"
Sunlit
Object is in full shadow
Visualization observer readout
Local Sidereal Time
06:31:53
Azimuth
117.145° SE
Elevation
-86.436°
Doppler factor
1
Orbital elements
Apogee altitude
486.39 km
Perigee altitude
483.651 km
Semi-major axis
6,863.157 km
Eccentricity
0.0002
Inclination
43.0045°
RAAN
357.6096°
Arg. of periapsis
285.6563°
True anomaly
Unknown
Mean anomaly
74.4069°
Eccentric anomaly
Unknown
Mean motion
3.81731 °/min
Orbital period
94.31 mins
BSTAR
-0.00005724
Loading maneuver chart data...
Loading SW <> Apogee altitude chart data...
Loading historical data...
Loading historical data...
Loading historical data...
Loading historical data...
Loading historical data...
Loading historical data...
Loading historical data...

STARLINK-31884 Visibility forecast

Observer location: undefined°, undefined°

Span
Click to sort rows by Start time (UTC) header in descending order
Start Az.
Max El. time (UTC)
Max El. Az.
Max El.
End time (UTC)
End Az.
7 mins2025-07-05 19:24:19.422Z288.723° WNW2025-07-05 19:27:19.422Z304.611° NW43.575°2025-07-05 19:31:19.422Z106.483° ESE
5 mins2025-07-05 21:04:19.422Z257.834° W2025-07-05 21:06:19.422Z214.23° SW22.973°2025-07-05 21:09:19.422Z158.237° S
4 mins2025-07-06 14:01:19.422Z182.584° SSW2025-07-06 14:03:19.422Z136.823° SSE21.248°2025-07-06 14:05:19.422Z99.076° ESE
6 mins2025-07-06 15:39:19.422Z251.91° W2025-07-06 15:41:19.422Z256.563° W43.937°2025-07-06 15:45:19.422Z71.848° E
6 mins2025-07-06 17:18:19.422Z288.324° WNW2025-07-06 17:20:19.422Z331.939° NNW36.563°2025-07-06 17:24:19.422Z76.501° E
|